Regional Weather Roundup
Issued by NWS Wakefield, VA

Home | Current Version | Previous Version | Graphics & Text | Print | Product List | Glossary On
Versions: 1 2 3 4 5 6 7 8 9 10 11 12 13 14 15 16 17 18 19 20 21 22 23 24 25 26 27 28 29 30 31 32 33 34 35 36 37 38 39 40 41 42 43 44 45 46 47 48 49 50
000
ASUS41 KAKQ 262010
RWRAKQ

REGIONAL WEATHER ROUNDUP
NATIONAL WEATHER SERVICE WAKEFIELD VA
300 PM EST THU FEB 26 2015

Note: "fair" indicates few or no clouds below 12,000 feet with no
significant weather and/or obstructions to visibility. * = Denotes
station may not report precipitation (e.g., rain,snow,etc.),
thunder or fog.

VAZ042-051-052>054-056-262100-
NORTHERN VIRGINIA

CITY           SKY/WX    TMP DP  RH WIND       PRES   REMARKS
WASH NATIONAL  PTSUNNY   38  23  55 N8        29.95R
DULLES         MOSUNNY   34  21  59 NW8       29.95R
FORT BELVOIR   CLOUDY    36  25  64 NW8       29.96R
QUANTICO       CLOUDY    36  26  67 NW13      29.97R
FREDERICKSBRG* PTSUNNY   37  28  68 NW8       29.95R
STAFFORD*      CLOUDY    35  26  71 NW9       29.99R
WARRENTON      CLOUDY    38  30  74 N7        29.95R
CULPEPER*      PTSUNNY   37  27  65 N7        29.95R
MANASSAS*      PTSUNNY   36  27  69 N6        29.95R
LEESBURG*      CLOUDY    34  27  75 NW3       29.95R
WINCHESTER     CLOUDY    36  21  55 CALM      29.93R
FRONT ROYAL*   CLOUDY    32  25  74 CALM      29.92R
LURAY*         CLOUDY    36  28  75 E7        29.91R
$$

VAZ048-049-060>072-079>083-262100-
CENTRAL AND SOUTH CENTRAL VIRGINIA

CITY           SKY/WX    TMP DP  RH WIND       PRES   REMARKS
RICHMOND       CLOUDY    37  26  64 N9        29.93R
CHESTERFIELD*  CLOUDY    37  19  48 N6        29.95R
PETERSBURG*    CLOUDY    37  29  75 N5        29.94R
HANOVER        CLOUDY    37  27  67 VRB5      29.95R
TAPPAHANNOCK*  CLOUDY    36  25  64 N6        29.93R
QUINTON*       CLOUDY    34  28  79 N5        29.93R
CHARLOTTSVILLE CLOUDY    36  24  62 NE5       29.91R
GORDONSVILLE*  CLOUDY    34  25  68 NE6       29.93R
ORANGE*        CLOUDY    36  28  75 N3        29.96R
LOUISA*        CLOUDY    36  28  75 N5        29.92R
BUMPASS*       CLOUDY    34  27  75 NW3       29.93R
FARMVILLE*     CLOUDY    40  28  62 N3        29.92R
CREWE*         CLOUDY    35  27  70 N7        29.92R
FORT PICKETT*  CLOUDY    34  28  76 N8        29.93R
CHASE CITY*    CLOUDY    37  30  78 NW9       29.92S
CLARKSVILLE*   CLOUDY    34  30  86 N9        29.92R
SOUTH HILL*    CLOUDY    34  28  78 N9        29.98R
LAWRENCEVILLE* CLOUDY    34  30  83 N8        29.92R
EMPORIA*       LGT SNOW  32  30  93 NW10      29.94R WCI  24
$$

VAZ088>098-262100-
SOUTHEAST VIRGINIA

CITY           SKY/WX    TMP DP  RH WIND       PRES   REMARKS
NORFOLK        CLOUDY    32  28  85 N16G26    29.90R WCI  21
VIRGINIA BEACH CLOUDY    34  31  88 N13       29.90R FOG     WCI  25
NORFOLK NAVAL  CLOUDY    35  28  75 N15       29.93R
WEST POINT*    CLOUDY    36  29  77 N7        29.95R
SALUDA*        CLOUDY    32  28  88 N8        29.92R
NEWPORT NEWS   FLURRIES  36  29  75 N9        29.92R
LANGLEY AFB    LGT RAIN  32  28  86 N9        29.92R
FORT EUSTIS    DRIZZLE   33  33  99 N7        29.91R
WILLIAMSBURG*  PTSUNNY   36  34  93 N6        29.93R
HR EXEC AP*    CLOUDY    34  28  80 N8        29.93R
FRANKLIN*      CLOUDY    33  30  89 N8        29.93R
WAKEFIELD      LGT SNOW  35  29  78 N8        29.93R
$$

VAZ020-022-025-037-045-262100-
WEST CENTRAL AND SOUTHWEST VIRGINIA

CITY           SKY/WX    TMP DP  RH WIND       PRES   REMARKS
STAUNTON*      CLOUDY    35  23  63 N3        29.90R
WAYNESBORO*    CLOUDY    33  23  68 CALM      29.86F
HOT SPRINGS VA CLOUDY    28  23  83 W10       29.74S WCI  18
LYNCHBURG      CLOUDY    34  26  72 E3        29.91R
DANVILLE       CLOUDY    36  27  69 E5        29.93R
SOUTH BOSTON*  CLOUDY    34  28  78 N6        29.94R
MARTINSVILLE   CLOUDY    42  29  61 E3        29.93R
ROANOKE        CLOUDY    37  25  61 CALM      29.90R
BLACKSBURG     CLOUDY    35  24  65 NW8       29.88R
DUBLIN*        CLOUDY    37  28  71 NW3       29.87R
MARION*        CLOUDY    32  27  80 W12       29.89R WCI  23
HILLSVILLE*    CLOUDY    33  26  76 NW10      29.83R WCI  25
RICHLANDS*     CLOUDY    28  24  85 NW6       29.88R
WISE*          CLOUDY    32  27  80 CALM      29.89R
ABINGDON*      CLOUDY    35  29  78 NW6       29.90R
$$

MDZ021>025-VAZ099-100-262100-
SOUTHERN MARYLAND AND THE DELMARVA PENINSULA

CITY           SKY/WX    TMP DP  RH WIND       PRES   REMARKS
PATUXENT RIVER CLOUDY    31  24  75 N10       29.94R WCI  22
BAY BRIDGE APT   N/A     32  21  64 N10G17    29.95R WCI  24
LEONARDTOWN    CLOUDY    32  25  74 N5        29.94R
DOVER          CLOUDY    32  20  60 N13       29.93R WCI  23
GEORGETOWN     CLOUDY    36  21  54 N7        29.92R
EASTON         CLOUDY    36  25  64 N9        29.96R
CAMBRIDGE      PTSUNNY   36  27  69 N9        29.92R
SALISBURY      CLOUDY    32  24  72 N13       29.92R WCI  22
OCEAN CITY     CLOUDY    29  23  78 N18G29    29.90R WCI  16
WALLOPS ISLAND LGT SNOW  30  26  85 NE10G25   29.90R FOG     WCI  21
ACCOMACK*      CLOUDY    32  27  80 N13G18    29.90R WCI  22
$$

NCZ012>017-030>032-262100-
NORTH CENTRAL AND EASTERN NORTH CAROLINA

CITY           SKY/WX    TMP DP  RH WIND       PRES   REMARKS
ROANOKE RAPIDS DRIZZLE   34  32  93 N7        29.93R
RALEIGH        CLOUDY    35  28  75 N6        29.92R
ELIZABETH CITY NOT AVBL
AHOSKIE*       CLOUDY    34  31  88 N6        29.93R
EDENTON*       CLOUDY    34  32  93 N9        29.89R FOG
CURRITUCK*     CLOUDY    33  31  92 N17G25    29.89R FOG     WCI  22
KILL DEVIL HLS CLOUDY    34  34 100 N12G22    29.81R FOG
MANTEO         CLOUDY    34  34 100 N16G26    29.84R FOG     WCI  23
CAPE HATTERAS  CLOUDY    36  35  96 N8G20     29.80R
TARBORO*       CLOUDY    36  32  87 NW6       29.94R
GOLDSBORO      CLOUDY    37  36  98 VRB6      29.90R
WASHINGTON     CLOUDY    35  32  88 NW8       29.90R
GREENVILLE     CLOUDY    34  32  93 N5        29.94R FOG
NEW BERN       CLOUDY    37  32  82 N12       29.90R
WILMINGTON     CLOUDY    39  33  79 N10       29.90R
$$

VAZ048-262100-
ELSEWHERE

CITY           SKY/WX    TMP DP  RH WIND       PRES   REMARKS
HARRISBURG PA  PTSUNNY   30  19  63 W10       29.95R WCI  21
BALTIMORE      PTSUNNY   35  20  54 N6        29.94R
ANNAPOLIS      PTSUNNY   34  22  61 NW10      29.94R
ANDREWS AFB    MOSUNNY   36  24  63 N9        29.93R
PHILADELPHIA   CLOUDY    31  14  49 N12       29.95R WCI  22
HENDERSON NC   CLOUDY    34  27  76 N7        29.92R
GREENSBORO     PTSUNNY   35  29  78 NE6       29.91R
ROCKY MOUNT    CLOUDY    35  31  85 N8        29.93R
$$

VAZ100-262100-
MARINE

STATION/POSITION TIME  TEMP    WIND        PRES    WAVE   SWELL
                       AIR SEA DIR/SP/G            HT/PER HT/PER
                 (UTC) (F)     (DEG/KT/KT) (MB)    (FT/S) (FT/S)
BRANDYWINE LGT   2000   30 29   20/  8/  9 1012.6R
CAPE MAY NJ      2000   30 32   60/  4/  6 1012.4R
LEWES DE         2000   30 30   10/  7/  8 1012.9R
15NM E FENWICK I 2000   30 36              1010.7R  11/ 8
OCEAN-CITY-INLET 2000   28 32   30/ 18/ 28 1011.8R
WACHAPREAGUE VA  2000   30 31   10/ 10/ 15 1012.0R
THOMAS POINT MD  2000   30 31   30/ 14/ 15 1015.1R
COVE POINT MD    2000   28      10/ 12/ 17 1013.5R
SOLOMONS ISLAND  2000      33                N/A
BISHOPS HEAD MD  2000   31 31   10/  8/ 13 1012.6R
CAMBRIDGE MD     2000   32 32  350/  9/ 11 1013.0R
LEWISETTA VA     2000          360/  3/  6 1013.3R
RAPPAHANNOCK LGT 2000           10/ 18/ 21 1013.0R
STINGRAY PT      2000   30      20/ 14/ 17   N/A
YORK RVR RNG VA  2000   31      10/ 19/ 21 1011.9R
YORKTOWN VA      2000   32 32   10/ 10/ 13 1012.5R
DOMINION TERM VA 2000   33     360/ 12/ 16 1012.6R
KIPTOPEKE VA     2000          340/ 15/ 18   N/A
CHES BAY BRIDGE  2000   31 32  340/ 13/ 15 1012.0R
CAPE HENRY VA    2000   31     340/ 15/ 18 1010.9R
CHESAPEAKE LGHT  1900   32      10/ 30/ 33 1009.0R
WILLOUBY STN VA  2000          360/ 15/ 17 1012.8R
S CRANEY ISL VA  2000          360/  7/  8 1012.5R
CAPE HENRY BUOY  2000      36                N/A     9/ 9   2/11
1ST LANDING BUOY 2000   31                 1011.7R
OFFSHORE WE BUOY 2000      38                N/A    11/ 9   7/ 9
64NM E OF VA BCH 2000   47 57   20/ 25/ 33 1006.8R  14/ 9  10/ 9
DUCK PIER NC     2000   33 34  350/ 24/ 29 1008.8R
44100 DUCK FRF   1900      37                N/A    12/ 8   3/11
44056 DUCK FRF   2000      35                N/A    11/ 8   3/11
OREGON INLET NC  2000   35 37  330/ 16/ 21 1008.8R
HATTERAS NC      2000   36 41  340/ 23/ 26 1009.1R
CAPE LOOKOUT NC  2000   38     350/ 17/ 21 1010.8R
$$



USA.gov is the U.S. government's official web portal to all federal, state and local government web resources and services.